Wind_Speed
35 34 34 32 30 30 31 30 30 28 27 26 26 26 25 25 24 23 22 21 22 22 22 22 22 22 22 22 22 21 22 22 23 23 24 25 25 25 26 25 24 24 24 24
36 35 35 34 33 32 31 31 30 29 27 26 26 27 26 25 24 23 22 22 22 22 21 22 21 21 21 21 21 22 22 23 22 24 24 25 25 25 24 24 23 22 22 23
36 35 36 35 32 32 32 30 29 29 26 26 27 27 26 25 24 23 22 22 22 21 21 21 20 21 22 22 22 22 23 24 23 24 25 25 25 25 24 22 22 21 21 22
37 36 37 34 32 32 32 31 30 30 28 27 27 27 27 26 25 24 24 24 23 23 23 22 23 23 23 22 22 22 23 24 24 25 25 25 24 24 23 22 21 21 21 22
38 37 37 34 33 32 32 31 29 29 28 28 28 28 27 26 26 25 25 25 26 25 24 24 23 23 23 23 22 22 23 23 23 24 24 25 25 25 24 22 22 22 22 22
40 39 37 33 32 33 33 32 29 29 29 28 29 28 26 26 26 26 26 26 25 24 24 23 23 23 23 23 24 24 23 23 23 24 24 25 26 25 24 24 24 23 23 24
39 38 37 34 33 32 33 31 30 29 29 29 29 28 27 26 26 26 26 25 25 25 25 24 24 24 24 25 25 24 24 24 24 25 25 26 26 25 26 26 25 25 25 26
37 37 35 33 32 32 31 31 31 30 30 29 29 28 28 27 27 27 26 26 26 26 25 25 25 25 25 25 25 25 25 25 26 26 27 28 27 27 27 27 27 27 27 27
35 35 34 34 33 32 31 30 30 29 30 30 30 29 29 28 28 28 27 27 27 26 25 25 25 25 25 26 26 26 27 27 27 28 29 30 29 29 29 28 27 28 28 28
35 34 34 34 33 32 31 31 30 30 30 30 29 29 29 29 29 28 28 27 26 26 26 25 25 25 26 27 27 27 27 28 29 30 31 31 30 30 30 30 30 30 30 30
35 34 34 33 33 33 32 31 30 30 30 30 30 30 30 30 30 29 29 27 26 25 25 25 25 26 27 28 28 29 29 30 31 31 32 31 31 31 32 32 32 32 32 31
34 33 33 32 32 32 31 31 31 31 31 31 31 31 31 31 31 30 29 28 27 27 27 27 26 27 28 29 30 30 31 32 32 33 32 32 32 33 33 34 35 34 33 32
34 34 33 33 33 32 32 31 31 31 32 31 31 31 31 31 30 29 28 28 28 28 28 28 28 29 30 31 31 32 32 33 33 33 33 33 34 35 35 36 36 34 33 32
34 34 33 33 33 33 32 32 32 31 31 31 31 32 32 31 30 30 29 30 30 30 30 30 30 30 31 32 33 33 33 34 34 34 34 35 35 35 36 36 34 33 32 31
33 33 33 32 32 32 32 32 32 31 31 31 32 32 31 30 30 30 30 30 30 30 30 30 31 32 33 33 33 33 34 34 34 35 35 35 35 35 35 34 33 32 30 29
33 33 32 32 31 30 29 30 30 30 30 30 31 31 31 30 30 30 30 30 30 30 31 32 33 33 34 34 34 34 35 35 36 36 35 35 35 34 34 32 31 29 28 26
34 34 33 32 31 31 30 30 30 30 30 31 31 31 31 31 31 31 31 31 31 31 32 33 33 34 35 35 36 36 36 37 37 37 35 34 33 33 33 31 29 28 26 25
32 33 33 33 33 32 31 31 31 30 31 31 31 31 32 32 32 33 33 33 33 33 33 34 34 35 36 37 36 36 36 36 36 35 34 33 33 32 30 29 27 25 24 23
30 31 32 32 32 32 32 31 31 31 31 31 31 31 32 32 33 34 34 35 34 34 34 35 36 36 36 36 36 35 35 35 35 34 33 32 31 30 28 26 24 22 21 21
29 30 30 30 29 30 30 30 30 30 30 30 30 31 32 33 34 35 35 35 36 35 35 36 36 35 35 34 34 34 33 33 32 31 30 29 28 27 25 23 22 20 20 19
28 29 29 30 29 29 29 29 30 31 31 31 32 32 33 34 34 35 35 34 34 35 34 34 34 34 33 33 32 32 32 31 30 29 28 27 26 24 23 21 20 19 18 17
25 27 28 30 31 30 30 30 30 30 31 31 32 32 32 32 33 33 34 34 34 34 33 33 33 33 32 32 31 31 30 29 28 27 27 26 24 23 21 19 18 17 17 17
25 26 28 29 30 31 31 31 30 30 30 30 31 31 31 31 31 32 32 33 33 33 32 32 32 32 31 30 30 30 29 28 26 26 25 24 23 21 20 19 18 17 16 15
25 25 26 27 28 29 30 30 30 30 29 29 29 29 29 29 30 30 30 31 31 31 31 31 31 31 30 30 29 28 27 26 25 24 24 22 21 19 18 17 17 16 15 15
23 24 25 25 26 27 27 28 29 29 28 28 28 29 29 29 29 30 30 30 30 30 30 30 30 29 29 28 27 26 25 24 24 23 22 20 19 18 17 16 16 16 16 15
22 23 23 24 24 25 25 26 27 28 28 29 29 29 29 29 29 29 29 29 28 28 28 28 28 27 27 26 25 25 24 23 22 21 20 19 17 16 16 16 15 15 15 14
21 21 21 22 22 22 23 24 25 27 28 28 29 29 29 29 29 28 28 27 27 26 26 26 26 25 25 24 23 22 22 21 20 19 18 17 16 15 15 15 14 14 13 13
Wind_Direction
244 246 247 249 251 255 259 264 269 271 273 276 279 283 287 290 291 290 290 292 293 294 297 300 301 301 302 300 301 302 303 305 304 305 304 301 299 299 300 298 294 289 284 278
244 245 248 249 251 255 259 263 268 270 271 274 277 280 283 286 286 287 289 294 295 295 297 299 301 304 304 302 302 302 304 306 308 309 308 307 304 305 303 299 295 292 284 276
243 245 248 249 252 257 260 264 267 269 271 271 273 276 279 281 282 284 289 293 294 295 295 297 301 305 305 302 299 300 302 305 307 308 307 307 308 309 305 298 295 291 284 277
244 245 248 251 253 256 259 262 265 267 268 270 272 274 276 280 282 283 287 289 291 293 293 295 299 300 301 302 298 298 300 302 303 306 307 308 310 310 305 300 295 292 288 284
245 247 249 249 252 255 259 261 264 265 266 267 271 273 274 279 281 281 285 288 289 290 292 294 296 297 297 299 298 298 299 301 303 305 307 307 309 307 305 300 295 291 289 286
244 247 250 250 253 255 258 260 261 264 265 266 268 272 273 276 278 279 282 285 287 288 290 293 294 295 296 297 299 299 299 301 303 304 305 306 307 305 303 300 295 292 291 291
243 247 250 252 255 256 258 260 260 262 263 264 266 269 271 274 276 279 280 282 284 286 287 290 291 292 294 296 297 298 299 300 302 303 304 305 305 304 302 300 296 293 291 292
242 246 249 252 254 255 258 258 259 260 262 264 266 268 270 272 275 277 279 280 282 283 283 285 288 289 291 293 295 296 297 298 299 300 302 303 303 303 302 299 296 294 292 291
238 242 245 246 250 253 255 256 258 259 261 263 264 267 269 271 273 274 275 278 280 280 280 282 285 287 289 291 292 293 293 295 296 298 299 301 301 302 302 301 297 295 294 292
236 238 241 244 248 251 253 254 256 259 260 262 264 265 268 270 272 274 275 276 277 278 278 280 283 284 286 288 290 290 290 292 294 296 297 297 298 300 300 299 297 295 294 292
236 237 240 242 246 249 251 253 255 258 261 262 263 264 266 269 271 272 273 274 275 276 278 279 281 284 286 289 290 291 292 293 295 296 296 295 296 297 298 297 297 295 293 290
235 237 240 241 244 247 251 254 256 258 260 262 264 265 267 269 270 271 271 271 273 276 277 279 281 284 286 288 290 291 292 294 295 295 295 294 294 295 297 298 296 294 292 290
236 237 239 241 244 248 252 254 256 258 261 262 264 265 265 266 266 267 269 270 272 274 276 277 280 283 286 289 290 291 293 294 294 295 295 294 294 295 296 297 297 295 291 289
238 239 241 242 244 246 250 253 255 257 259 260 261 263 264 263 263 265 267 268 271 273 274 277 281 284 287 289 291 292 293 294 295 296 295 295 294 295 296 297 295 293 290 287
238 239 240 241 243 246 248 251 254 255 258 259 260 262 263 263 263 265 268 268 270 273 275 279 283 286 288 290 291 292 294 295 295 296 296 295 295 295 296 296 294 291 288 284
238 239 241 243 245 248 250 251 253 255 257 259 260 261 263 263 264 266 269 270 272 274 277 281 284 286 288 290 291 293 294 295 296 295 295 295 294 295 295 293 292 289 286 282
239 240 242 245 247 248 250 252 254 256 258 259 260 261 263 265 265 267 269 272 274 276 279 282 284 286 287 289 291 293 294 294 295 295 293 294 294 294 293 291 290 288 285 282
239 240 242 245 246 248 250 252 255 257 258 259 261 263 265 267 268 268 270 273 275 277 280 283 284 286 288 289 290 292 293 294 295 294 293 292 292 293 292 290 289 286 283 279
241 242 243 245 247 250 252 253 255 256 259 261 264 265 267 268 268 269 272 274 276 278 280 282 285 287 287 288 289 291 293 294 294 293 293 292 291 291 289 287 286 283 280 278
243 244 245 245 247 250 252 254 255 257 259 262 265 267 268 269 270 270 272 274 276 277 279 282 284 285 286 287 289 291 293 294 294 293 293 292 292 289 286 284 282 280 277 274
245 246 247 248 249 250 252 253 255 257 260 263 266 268 270 271 271 271 273 274 275 276 278 280 281 282 284 286 288 290 291 293 293 293 292 292 291 288 283 281 279 276 273 271
247 248 248 249 251 252 254 256 257 259 261 264 267 269 270 272 273 273 273 274 275 276 277 278 280 281 282 285 288 290 291 291 291 291 291 290 289 285 280 277 274 272 271 269
249 250 250 250 251 253 254 256 258 261 263 265 267 270 272 273 274 275 276 275 275 276 276 277 278 279 281 284 286 288 288 289 289 290 289 289 286 281 276 273 269 268 268 265
252 252 253 253 253 254 255 256 258 261 263 265 267 269 272 273 274 275 276 276 276 276 276 277 277 279 281 283 284 285 285 286 287 288 289 287 282 277 273 269 266 263 262 261
254 253 253 255 257 257 256 257 259 261 263 265 268 270 272 273 274 275 276 277 278 277 277 277 278 279 280 282 282 283 283 284 285 286 285 284 280 275 269 265 263 262 260 258
258 255 254 255 257 258 258 259 261 263 264 266 269 270 272 274 276 277 277 277 278 278 276 276 277 277 277 278 280 281 282 282 281 281 282 281 276 271 267 264 261 259 256 253
260 259 257 258 260 261 262 264 265 265 265 267 269 271 273 276 277 277 276 276 277 277 276 275 276 276 276 277 278 279 280 279 279 280 280 277 271 266 263 259 257 254 248 244
Height
5615 5618 5620 5623 5625 5626 5627 5628 5629 5630 5630 5630 5628 5626 5624 5621 5619 5616 5615 5612 5610 5608 5605 5603 5600 5597 5594 5591 5588 5586 5583 5579 5576 5572 5569 5566 5563 5560 5557 5554 5551 5549 5548 5548
5605 5608 5610 5613 5616 5618 5619 5620 5621 5621 5623 5623 5621 5619 5617 5616 5613 5611 5610 5608 5606 5604 5601 5598 5595 5592 5589 5587 5584 5582 5579 5576 5572 5569 5565 5562 5558 5555 5552 5549 5547 5545 5543 5543
5596 5599 5600 5603 5608 5610 5611 5612 5613 5613 5616 5615 5613 5612 5610 5609 5608 5606 5605 5603 5602 5599 5596 5593 5591 5588 5585 5582 5580 5578 5575 5572 5569 5565 5562 5558 5554 5551 5548 5545 5543 5540 5539 5538
5586 5589 5590 5599 5601 5601 5602 5604 5605 5606 5607 5607 5606 5604 5603 5602 5602 5601 5599 5598 5596 5594 5592 5589 5586 5583 5581 5578 5576 5574 5571 5568 5565 5562 5558 5555 5551 5547 5544 5541 5539 5536 5535 5533
5576 5578 5582 5589 5592 5593 5593 5595 5597 5597 5598 5598 5597 5596 5596 5595 5594 5594 5593 5591 5589 5587 5586 5584 5581 5579 5577 5575 5572 5569 5566 5564 5561 5557 5554 5551 5547 5543 5540 5537 5535 5532 5531 5529
5567 5569 5573 5582 5583 5583 5584 5586 5589 5588 5589 5589 5589 5589 5590 5588 5587 5587 5586 5585 5583 5581 5580 5578 5576 5574 5572 5570 5567 5564 5562 5559 5556 5553 5549 5546 5543 5539 5536 5533 5530 5528 5526 5523
5557 5560 5565 5571 5572 5573 5576 5579 5579 5579 5579 5580 5580 5581 5582 5580 5580 5579 5579 5578 5576 5575 5574 5572 5570 5568 5566 5564 5562 5559 5556 5554 5551 5548 5545 5541 5537 5534 5531 5528 5525 5522 5520 5518
5548 5551 5559 5561 5562 5564 5566 5567 5568 5569 5570 5571 5572 5572 5573 5573 5572 5572 5571 5571 5569 5568 5567 5565 5564 5562 5560 5558 5556 5553 5551 5548 5545 5542 5539 5535 5532 5528 5525 5521 5519 5516 5514 5511
5539 5545 5548 5550 5552 5554 5555 5557 5559 5560 5561 5562 5563 5564 5564 5564 5564 5564 5563 5562 5562 5561 5560 5558 5557 5555 5554 5552 5550 5547 5545 5542 5539 5536 5532 5529 5525 5522 5519 5515 5512 5509 5507 5504
5529 5534 5537 5540 5542 5544 5546 5547 5549 5551 5552 5553 5554 5555 5556 5556 5555 5555 5555 5554 5554 5553 5552 5551 5550 5548 5546 5545 5543 5541 5538 5535 5532 5529 5526 5522 5518 5515 5512 5508 5505 5502 5500 5497
5519 5524 5527 5530 5533 5535 5536 5538 5540 5542 5543 5544 5545 5546 5547 5547 5547 5546 5546 5546 5546 5545 5545 5544 5542 5541 5539 5537 5535 5533 5530 5528 5525 5521 5518 5514 5511 5507 5504 5501 5497 5495 5492 5489
5511 5514 5517 5520 5523 5525 5527 5529 5531 5532 5534 5535 5536 5536 5537 5538 5538 5538 5538 5537 5537 5537 5536 5535 5534 5533 5531 5529 5527 5525 5522 5519 5516 5513 5510 5506 5503 5500 5496 5493 5489 5486 5482 5480
5500 5503 5506 5510 5513 5516 5518 5520 5521 5523 5524 5526 5527 5527 5528 5528 5529 5529 5529 5529 5529 5528 5528 5527 5526 5525 5523 5521 5519 5516 5514 5511 5507 5504 5501 5498 5494 5491 5488 5485 5480 5477 5474 5471
5490 5493 5496 5500 5503 5506 5508 5510 5512 5513 5514 5516 5517 5518 5518 5519 5519 5520 5520 5520 5520 5519 5519 5518 5517 5516 5514 5512 5510 5507 5505 5501 5498 5495 5492 5488 5485 5481 5478 5475 5472 5469 5465 5462
5481 5484 5487 5490 5493 5496 5498 5500 5502 5504 5505 5506 5507 5508 5509 5509 5510 5510 5511 5511 5511 5510 5510 5509 5508 5506 5504 5502 5500 5498 5495 5492 5489 5486 5482 5479 5475 5472 5468 5465 5462 5459 5456 5454
5472 5475 5478 5481 5484 5486 5489 5491 5492 5494 5495 5496 5498 5498 5499 5500 5500 5501 5501 5501 5501 5501 5500 5500 5498 5497 5494 5492 5490 5488 5485 5482 5479 5476 5473 5469 5466 5462 5459 5455 5452 5450 5447 5446
5462 5466 5469 5472 5475 5477 5479 5481 5483 5484 5486 5487 5488 5489 5490 5490 5491 5492 5492 5492 5492 5491 5491 5490 5488 5486 5484 5483 5480 5478 5475 5472 5469 5466 5463 5459 5456 5453 5449 5446 5443 5441 5439 5437
5453 5457 5460 5463 5465 5468 5470 5472 5474 5475 5476 5477 5479 5479 5480 5481 5482 5482 5482 5482 5482 5481 5481 5480 5478 5476 5474 5472 5470 5467 5465 5462 5459 5455 5452 5449 5446 5443 5440 5437 5435 5433 5431 5430
5445 5448 5451 5453 5456 5458 5461 5462 5464 5466 5467 5468 5469 5470 5471 5471 5472 5472 5472 5472 5472 5471 5470 5469 5467 5466 5464 5462 5459 5457 5454 5451 5448 5445 5442 5439 5436 5434 5431 5429 5427 5425 5424 5423
5437 5440 5442 5445 5447 5449 5451 5453 5455 5456 5458 5459 5460 5460 5461 5461 5461 5461 5461 5461 5460 5460 5459 5458 5456 5455 5453 5451 5448 5446 5444 5441 5438 5435 5432 5430 5427 5425 5423 5421 5420 5418 5417 5416
5430 5432 5434 5436 5438 5440 5442 5444 5445 5447 5448 5449 5450 5450 5450 5450 5450 5450 5450 5450 5449 5448 5447 5446 5445 5444 5442 5440 5438 5436 5433 5431 5428 5426 5423 5421 5419 5417 5415 5414 5412 5411 5411 5410
5421 5423 5425 5427 5430 5431 5433 5434 5436 5437 5438 5439 5439 5440 5440 5439 5439 5439 5439 5439 5438 5437 5436 5436 5435 5433 5432 5430 5428 5426 5424 5422 5419 5417 5414 5412 5410 5409 5407 5407 5406 5405 5405 5405
5414 5415 5417 5418 5420 5422 5424 5425 5426 5428 5428 5429 5429 5429 5429 5429 5429 5428 5428 5428 5427 5426 5426 5425 5424 5423 5422 5420 5418 5416 5415 5412 5410 5408 5406 5404 5403 5401 5400 5400 5399 5399 5399 5399
5405 5407 5408 5410 5411 5413 5415 5416 5417 5418 5419 5419 5420 5420 5420 5419 5419 5418 5418 5417 5416 5416 5415 5415 5414 5413 5412 5410 5409 5407 5405 5404 5402 5400 5398 5397 5395 5394 5394 5393 5393 5393 5393 5393
5397 5398 5400 5402 5403 5404 5406 5407 5408 5409 5409 5410 5410 5410 5410 5409 5409 5408 5408 5407 5406 5406 5405 5405 5404 5403 5402 5400 5399 5398 5396 5395 5394 5392 5391 5389 5388 5387 5387 5387 5387 5387 5388 5388
5390 5391 5392 5394 5395 5396 5397 5398 5399 5400 5400 5400 5401 5400 5400 5400 5399 5399 5398 5397 5397 5396 5395 5395 5394 5393 5392 5391 5390 5389 5388 5387 5386 5384 5383 5382 5381 5381 5381 5381 5381 5382 5382 5383
5383 5384 5385 5386 5387 5388 5389 5390 5390 5391 5391 5391 5391 5391 5391 5390 5389 5389 5388 5388 5387 5387 5386 5385 5385 5384 5383 5382 5381 5380 5379 5379 5378 5377 5376 5375 5375 5374 5375 5375 5375 5376 5377 5378